Time,TemperatureF,DewpointF,PressureIn,WindDirection,WindDirectionDegrees,WindSpeedMPH,WindSpeedGustMPH,Humidity,HourlyPrecipIn,Conditions,Clouds,dailyrainin,SoftwareType,DateUTC
2013-02-20 00:00:00,17.5,10.8,29.89,WNW,286,7.3,11.2,75,0.00,,,0.00,WUHU216HW,2013-02-20 05:00:00,
2013-02-20 00:03:00,17.5,10.8,29.89,West,276,4.3,9.8,75,0.00,,,0.00,WUHU216HW,2013-02-20 05:03:00,
2013-02-20 00:06:00,17.5,10.8,29.89,WNW,284,8.5,10.5,75,0.00,,,0.00,WUHU216HW,2013-02-20 05:06:00,
2013-02-20 00:11:00,17.5,10.8,29.89,NW,309,6.3,6.5,75,0.00,,,0.00,WUHU216HW,2013-02-20 05:11:00,
2013-02-20 00:16:00,17.3,10.6,29.89,WNW,297,10.9,13.9,75,0.00,,,0.00,WUHU216HW,2013-02-20 05:16:00,
2013-02-20 00:21:00,17.3,10.6,29.89,West,262,5.8,9.2,75,0.00,,,0.00,WUHU216HW,2013-02-20 05:21:00,
2013-02-20 00:26:00,17.3,10.9,29.89,WSW,253,8.4,9.8,76,0.00,,,0.00,WUHU216HW,2013-02-20 05:26:00,
2013-02-20 00:31:00,17.5,11.1,29.89,West,279,5.3,6.7,76,0.00,,,0.00,WUHU216HW,2013-02-20 05:31:00,
2013-02-20 00:36:00,17.3,10.9,29.89,WNW,296,5.7,7.6,76,0.00,,,0.00,WUHU216HW,2013-02-20 05:36:00,
2013-02-20 00:41:00,17.3,10.9,29.90,WNW,285,5.2,7.8,76,0.00,,,0.00,WUHU216HW,2013-02-20 05:41:00,
2013-02-20 00:46:00,17.3,10.9,29.90,WNW,283,6.2,8.5,76,0.00,,,0.00,WUHU216HW,2013-02-20 05:46:00,
2013-02-20 00:51:00,17.3,11.3,29.90,WSW,242,2.9,3.1,77,0.00,,,0.00,WUHU216HW,2013-02-20 05:51:00,
2013-02-20 00:56:00,17.5,11.4,29.91,West,279,3.8,4.3,77,0.00,,,0.00,WUHU216HW,2013-02-20 05:56:00,
2013-02-20 01:01:00,17.5,11.4,29.91,West,273,5.1,6.9,77,0.00,,,0.00,WUHU216HW,2013-02-20 06:01:00,
2013-02-20 01:06:00,17.5,11.7,29.91,West,276,4.9,5.6,78,0.00,,,0.00,WUHU216HW,2013-02-20 06:06:00,
2013-02-20 01:11:00,17.6,11.5,29.91,WNW,289,3.9,6.3,77,0.00,,,0.00,WUHU216HW,2013-02-20 06:11:00,
2013-02-20 01:16:00,17.6,11.9,29.91,WNW,286,3.6,4.0,78,0.00,,,0.00,WUHU216HW,2013-02-20 06:16:00,
2013-02-20 01:21:00,17.6,11.9,29.91,WSW,258,3.9,4.7,78,0.00,,,0.00,WUHU216HW,2013-02-20 06:21:00,
2013-02-20 01:26:00,17.6,11.9,29.91,WNW,303,4.9,5.6,78,0.00,,,0.00,WUHU216HW,2013-02-20 06:26:00,
2013-02-20 01:31:00,17.6,11.9,29.91,WNW,288,5.3,8.5,78,0.00,,,0.00,WUHU216HW,2013-02-20 06:31:00,
2013-02-20 01:36:00,17.6,11.9,29.91,WNW,293,6.5,9.2,78,0.00,,,0.00,WUHU216HW,2013-02-20 06:36:00,
2013-02-20 01:41:00,17.6,11.9,29.91,West,273,3.8,4.3,78,0.00,,,0.00,WUHU216HW,2013-02-20 06:41:00,
2013-02-20 01:46:00,17.6,11.5,29.91,West,261,5.3,6.5,77,0.00,,,0.00,WUHU216HW,2013-02-20 06:46:00,
2013-02-20 01:52:00,17.6,11.5,29.92,WNW,289,7.6,9.2,77,0.00,,,0.00,WUHU216HW,2013-02-20 06:52:00,
2013-02-20 01:57:00,17.6,11.5,29.92,WNW,292,6.2,8.1,77,0.00,,,0.00,WUHU216HW,2013-02-20 06:57:00,
2013-02-20 02:02:00,17.6,11.5,29.92,NNW,330,5.9,6.9,77,0.00,,,0.00,WUHU216HW,2013-02-20 07:02:00,
2013-02-20 02:07:00,17.6,11.5,29.92,NNW,327,3.7,4.7,77,0.00,,,0.00,WUHU216HW,2013-02-20 07:07:00,
2013-02-20 02:12:00,17.6,11.5,29.92,WSW,240,4.2,4.3,77,0.00,,,0.00,WUHU216HW,2013-02-20 07:12:00,
2013-02-20 02:17:00,17.6,11.5,29.92,NW,322,9.3,10.3,77,0.00,,,0.00,WUHU216HW,2013-02-20 07:17:00,
2013-02-20 02:22:00,17.6,11.5,29.92,WNW,299,5.9,9.4,77,0.00,,,0.00,WUHU216HW,2013-02-20 07:22:00,
2013-02-20 02:27:00,17.6,11.3,29.92,NW,317,2.6,3.8,76,0.00,,,0.00,WUHU216HW,2013-02-20 07:27:00,
2013-02-20 02:32:00,17.5,11.1,29.92,West,268,4.8,6.3,76,0.00,,,0.00,WUHU216HW,2013-02-20 07:32:00,
2013-02-20 02:37:00,17.6,11.3,29.93,WNW,290,4.5,6.9,76,0.00,,,0.00,WUHU216HW,2013-02-20 07:37:00,
2013-02-20 02:42:00,17.6,11.0,29.93,NW,308,7.8,9.8,75,0.00,,,0.00,WUHU216HW,2013-02-20 07:42:00,
2013-02-20 02:47:00,17.5,10.8,29.93,WNW,296,2.2,7.6,75,0.00,,,0.00,WUHU216HW,2013-02-20 07:47:00,
2013-02-20 02:52:00,17.5,10.8,29.93,West,271,4.3,10.7,75,0.00,,,0.00,WUHU216HW,2013-02-20 07:52:00,
2013-02-20 02:57:00,17.5,10.8,29.94,WNW,287,4.3,5.8,75,0.00,,,0.00,WUHU216HW,2013-02-20 07:57:00,
2013-02-20 03:05:00,17.5,10.8,29.94,WNW,286,4.7,8.5,75,0.00,,,0.00,WUHU216HW,2013-02-20 08:05:00,
2013-02-20 03:10:00,17.3,10.4,29.94,West,262,5.7,11.4,74,0.00,,,0.00,WUHU216HW,2013-02-20 08:10:00,
2013-02-20 03:15:00,17.3,9.7,29.94,NNW,337,5.5,6.7,72,0.00,,,0.00,WUHU216HW,2013-02-20 08:15:00,
2013-02-20 03:20:00,17.1,9.6,29.94,West,270,6.3,10.1,72,0.00,,,0.00,WUHU216HW,2013-02-20 08:20:00,
2013-02-20 03:25:00,16.9,9.5,29.94,NW,304,3.7,5.4,72,0.00,,,0.00,WUHU216HW,2013-02-20 08:25:00,
2013-02-20 03:30:00,16.9,9.1,29.95,NW,315,5.5,6.3,71,0.00,,,0.00,WUHU216HW,2013-02-20 08:30:00,
2013-02-20 03:35:00,16.7,8.9,29.95,NNW,339,4.1,5.4,71,0.00,,,0.00,WUHU216HW,2013-02-20 08:35:00,
2013-02-20 03:40:00,16.7,8.9,29.95,NW,325,5.0,8.5,71,0.00,,,0.00,WUHU216HW,2013-02-20 08:40:00,
2013-02-20 03:45:00,16.6,8.7,29.95,West,271,1.5,2.0,71,0.00,,,0.00,WUHU216HW,2013-02-20 08:45:00,
2013-02-20 03:50:00,16.6,8.7,29.95,West,277,4.3,5.4,71,0.00,,,0.00,WUHU216HW,2013-02-20 08:50:00,
2013-02-20 03:55:00,16.7,8.9,29.95,NW,322,5.1,6.0,71,0.00,,,0.00,WUHU216HW,2013-02-20 08:55:00,
2013-02-20 04:00:00,16.7,8.9,29.96,WNW,286,8.2,12.8,71,0.00,,,0.00,WUHU216HW,2013-02-20 09:00:00,
2013-02-20 04:05:00,16.7,9.3,29.96,WNW,295,7.1,9.2,72,0.00,,,0.00,WUHU216HW,2013-02-20 09:05:00,
2013-02-20 04:10:00,16.6,9.6,29.96,West,270,3.4,5.1,74,0.00,,,0.00,WUHU216HW,2013-02-20 09:10:00,
2013-02-20 04:15:00,16.4,9.5,29.96,NW,316,4.8,5.1,74,0.00,,,0.00,WUHU216HW,2013-02-20 09:15:00,
2013-02-20 04:20:00,16.4,9.5,29.97,NW,312,2.7,4.7,74,0.00,,,0.00,WUHU216HW,2013-02-20 09:20:00,
2013-02-20 04:25:00,16.4,9.5,29.97,West,272,5.4,6.9,74,0.00,,,0.00,WUHU216HW,2013-02-20 09:25:00,
2013-02-20 04:30:00,16.4,9.5,29.97,NW,316,4.4,5.8,74,0.00,,,0.00,WUHU216HW,2013-02-20 09:30:00,
2013-02-20 04:35:00,16.4,9.8,29.97,WNW,295,5.4,6.7,75,0.00,,,0.00,WUHU216HW,2013-02-20 09:35:00,
2013-02-20 04:40:00,16.2,9.6,29.97,NW,307,4.5,8.7,75,0.00,,,0.00,WUHU216HW,2013-02-20 09:40:00,
2013-02-20 04:45:00,16.2,9.9,29.97,NW,315,5.8,8.7,76,0.00,,,0.00,WUHU216HW,2013-02-20 09:45:00,
2013-02-20 04:50:00,16.2,9.9,29.97,WNW,287,7.5,11.4,76,0.00,,,0.00,WUHU216HW,2013-02-20 09:50:00,
2013-02-20 04:55:00,16.2,9.9,29.98,WSW,257,2.5,4.7,76,0.00,,,0.00,WUHU216HW,2013-02-20 09:55:00,
2013-02-20 05:00:00,16.0,9.7,29.97,West,261,4.7,5.4,76,0.00,,,0.00,WUHU216HW,2013-02-20 10:00:00,
2013-02-20 05:05:00,15.8,9.3,29.98,West,269,6.3,7.6,75,0.00,,,0.00,WUHU216HW,2013-02-20 10:05:00,
2013-02-20 05:10:00,15.8,9.3,29.98,WNW,296,5.1,9.2,75,0.00,,,0.00,WUHU216HW,2013-02-20 10:10:00,
2013-02-20 05:15:00,15.7,9.1,29.98,WNW,291,3.6,4.3,75,0.00,,,0.00,WUHU216HW,2013-02-20 10:15:00,
2013-02-20 05:20:00,15.7,9.1,29.98,West,263,3.0,3.6,75,0.00,,,0.00,WUHU216HW,2013-02-20 10:20:00,
2013-02-20 05:25:00,15.5,8.9,29.98,WNW,303,1.9,2.7,75,0.00,,,0.00,WUHU216HW,2013-02-20 10:25:00,
2013-02-20 05:30:00,15.5,8.9,29.98,WNW,303,2.9,3.8,75,0.00,,,0.00,WUHU216HW,2013-02-20 10:30:00,
2013-02-20 05:35:00,15.5,8.7,29.99,WNW,287,4.7,6.9,74,0.00,,,0.00,WUHU216HW,2013-02-20 10:35:00,
2013-02-20 05:40:00,15.5,8.9,29.99,West,281,4.8,5.4,75,0.00,,,0.00,WUHU216HW,2013-02-20 10:40:00,
2013-02-20 05:46:00,15.7,8.8,29.99,NW,317,4.7,4.9,74,0.00,,,0.00,WUHU216HW,2013-02-20 10:46:00,
2013-02-20 05:51:00,15.8,9.0,29.99,WNW,294,3.0,4.0,74,0.00,,,0.00,WUHU216HW,2013-02-20 10:51:00,
2013-02-20 05:56:00,15.8,9.0,29.99,West,270,5.4,6.0,74,0.00,,,0.00,WUHU216HW,2013-02-20 10:56:00,
2013-02-20 06:01:00,15.8,9.0,29.99,WNW,298,6.0,9.2,74,0.00,,,0.00,WUHU216HW,2013-02-20 11:01:00,
2013-02-20 06:06:00,15.8,9.0,30.00,NW,320,4.9,7.2,74,0.00,,,0.00,WUHU216HW,2013-02-20 11:06:00,
2013-02-20 06:11:00,15.8,8.6,30.00,WNW,282,4.3,4.7,73,0.00,,,0.00,WUHU216HW,2013-02-20 11:11:00,
2013-02-20 06:16:00,15.8,8.6,30.00,NW,313,3.7,5.8,73,0.00,,,0.00,WUHU216HW,2013-02-20 11:16:00,
2013-02-20 06:21:00,15.7,8.5,30.00,NNW,343,2.8,4.5,73,0.00,,,0.00,WUHU216HW,2013-02-20 11:21:00,
2013-02-20 06:26:00,15.5,8.3,30.00,WSW,252,6.2,10.7,73,0.00,,,0.00,WUHU216HW,2013-02-20 11:26:00,
2013-02-20 06:31:00,15.5,8.3,30.00,NW,316,3.3,5.4,73,0.00,,,0.00,WUHU216HW,2013-02-20 11:31:00,
2013-02-20 06:36:00,15.5,8.3,30.00,NW,319,3.3,4.3,73,0.00,,,0.00,WUHU216HW,2013-02-20 11:36:00,
2013-02-20 06:41:00,15.5,8.3,30.00,NW,306,8.1,12.5,73,0.00,,,0.00,WUHU216HW,2013-02-20 11:41:00,
2013-02-20 06:46:00,15.5,8.3,30.01,WNW,291,3.6,4.5,73,0.00,,,0.00,WUHU216HW,2013-02-20 11:46:00,
2013-02-20 06:51:00,15.5,8.3,30.01,NW,305,3.2,4.7,73,0.00,,,0.00,WUHU216HW,2013-02-20 11:51:00,
2013-02-20 06:56:00,15.5,8.3,30.01,NW,318,5.8,7.2,73,0.00,,,0.00,WUHU216HW,2013-02-20 11:56:00,
2013-02-20 07:01:00,15.3,8.2,30.01,WNW,302,2.1,3.6,73,0.00,,,0.00,WUHU216HW,2013-02-20 12:01:00,
2013-02-20 07:06:00,15.3,8.2,30.02,NW,312,0.9,1.8,73,0.00,,,0.00,WUHU216HW,2013-02-20 12:06:00,
2013-02-20 07:11:00,15.5,8.3,30.02,NW,320,3.3,4.0,73,0.00,,,0.00,WUHU216HW,2013-02-20 12:11:00,
2013-02-20 07:16:00,15.5,8.3,30.02,WNW,287,5.9,9.2,73,0.00,,,0.00,WUHU216HW,2013-02-20 12:16:00,
2013-02-20 07:21:00,15.5,8.3,30.02,WNW,285,1.7,3.4,73,0.00,,,0.00,WUHU216HW,2013-02-20 12:21:00,
2013-02-20 07:26:00,15.5,8.3,30.02,WNW,292,6.0,7.8,73,0.00,,,0.00,WUHU216HW,2013-02-20 12:26:00,
2013-02-20 07:31:00,15.5,8.3,30.02,West,281,5.1,5.4,73,0.00,,,0.00,WUHU216HW,2013-02-20 12:31:00,
2013-02-20 07:36:00,15.5,8.3,30.02,WNW,284,6.6,10.7,73,0.00,,,0.00,WUHU216HW,2013-02-20 12:36:00,
2013-02-20 07:41:00,15.5,8.0,30.02,West,272,7.6,9.2,72,0.00,,,0.00,WUHU216HW,2013-02-20 12:41:00,
2013-02-20 07:46:00,15.5,8.0,30.03,West,269,4.2,4.9,72,0.00,,,0.00,WUHU216HW,2013-02-20 12:46:00,
2013-02-20 07:51:00,15.7,8.5,30.03,WNW,285,3.9,6.7,73,0.00,,,0.00,WUHU216HW,2013-02-20 12:51:00,
2013-02-20 07:56:00,15.7,8.5,30.03,NW,314,2.0,4.3,73,0.00,,,0.00,WUHU216HW,2013-02-20 12:56:00,
2013-02-20 08:01:00,15.8,8.6,30.03,WSW,253,5.3,7.4,73,0.00,,,0.00,WUHU216HW,2013-02-20 13:01:00,
2013-02-20 08:06:00,16.2,8.7,30.04,WNW,291,5.2,6.5,72,0.00,,,0.00,WUHU216HW,2013-02-20 13:06:00,
2013-02-20 08:11:00,16.2,8.7,30.03,NW,325,7.4,11.2,72,0.00,,,0.00,WUHU216HW,2013-02-20 13:11:00,
2013-02-20 08:16:00,16.2,8.7,30.04,WNW,302,3.6,3.8,72,0.00,,,0.00,WUHU216HW,2013-02-20 13:16:00,
2013-02-20 08:21:00,16.2,8.7,30.04,NW,305,3.6,4.0,72,0.00,,,0.00,WUHU216HW,2013-02-20 13:21:00,
2013-02-20 08:26:00,16.6,9.1,30.04,NNW,337,1.6,2.5,72,0.00,,,0.00,WUHU216HW,2013-02-20 13:26:00,
2013-02-20 08:32:00,16.7,9.3,30.04,NW,309,5.8,6.7,72,0.00,,,0.00,WUHU216HW,2013-02-20 13:32:00,
2013-02-20 08:37:00,16.9,9.5,30.05,NNW,327,2.9,4.0,72,0.00,,,0.00,WUHU216HW,2013-02-20 13:37:00,
2013-02-20 08:42:00,17.3,9.5,30.05,WNW,298,5.1,6.3,71,0.00,,,0.00,WUHU216HW,2013-02-20 13:42:00,
2013-02-20 08:47:00,17.5,9.6,30.04,WNW,294,5.1,8.9,71,0.00,,,0.00,WUHU216HW,2013-02-20 13:47:00,
2013-02-20 08:52:00,17.6,9.8,30.05,NNW,327,6.6,8.1,71,0.00,,,0.00,WUHU216HW,2013-02-20 13:52:00,
2013-02-20 08:57:00,17.8,10.0,30.05,WNW,297,6.3,10.3,71,0.00,,,0.00,WUHU216HW,2013-02-20 13:57:00,
2013-02-20 09:02:00,18.0,10.2,30.05,WNW,287,5.1,6.9,71,0.00,,,0.00,WUHU216HW,2013-02-20 14:02:00,
2013-02-20 09:07:00,18.0,9.9,30.05,NW,310,4.4,4.7,70,0.00,,,0.00,WUHU216HW,2013-02-20 14:07:00,
2013-02-20 09:12:00,18.2,9.7,30.05,WNW,300,4.9,6.5,69,0.00,,,0.00,WUHU216HW,2013-02-20 14:12:00,
2013-02-20 09:17:00,18.4,9.8,30.05,NNW,336,4.6,5.4,69,0.00,,,0.00,WUHU216HW,2013-02-20 14:17:00,
2013-02-20 09:22:00,18.5,10.0,30.05,NNW,333,3.6,6.3,69,0.00,,,0.00,WUHU216HW,2013-02-20 14:22:00,
2013-02-20 09:27:00,18.5,10.0,30.05,NNW,333,7.2,10.1,69,0.00,,,0.00,WUHU216HW,2013-02-20 14:27:00,
2013-02-20 09:32:00,18.7,10.2,30.05,NW,319,3.7,4.5,69,0.00,,,0.00,WUHU216HW,2013-02-20 14:32:00,
2013-02-20 09:37:00,19.1,10.2,30.05,NNW,342,4.7,7.6,68,0.00,,,0.00,WUHU216HW,2013-02-20 14:37:00,
2013-02-20 09:42:00,19.1,9.8,30.05,NNW,331,8.6,9.4,67,0.00,,,0.00,WUHU216HW,2013-02-20 14:42:00,
2013-02-20 09:47:00,19.3,10.0,30.05,NW,316,4.7,7.2,67,0.00,,,0.00,WUHU216HW,2013-02-20 14:47:00,
2013-02-20 09:52:00,19.3,9.3,30.06,NW,305,4.4,5.1,65,0.00,,,0.00,WUHU216HW,2013-02-20 14:52:00,
2013-02-20 09:57:00,19.8,10.2,30.06,NW,319,4.6,8.9,66,0.00,,,0.00,WUHU216HW,2013-02-20 14:57:00,
2013-02-20 10:02:00,20.3,10.4,30.06,NW,326,4.6,5.4,65,0.00,,,0.00,WUHU216HW,2013-02-20 15:02:00,
2013-02-20 10:07:00,20.5,10.5,30.06,NW,309,5.9,9.4,65,0.00,,,0.00,WUHU216HW,2013-02-20 15:07:00,
2013-02-20 10:12:00,20.0,10.0,30.06,NNW,328,7.1,8.9,65,0.00,,,0.00,WUHU216HW,2013-02-20 15:12:00,
2013-02-20 10:17:00,19.8,9.8,30.07,North,350,3.5,3.8,65,0.00,,,0.00,WUHU216HW,2013-02-20 15:17:00,
2013-02-20 10:22:00,19.8,9.8,30.06,NNW,343,6.1,6.9,65,0.00,,,0.00,WUHU216HW,2013-02-20 15:22:00,
2013-02-20 10:27:00,19.8,9.8,30.07,NW,320,6.0,6.3,65,0.00,,,0.00,WUHU216HW,2013-02-20 15:27:00,
2013-02-20 10:32:00,19.8,9.8,30.06,NNW,335,3.7,5.8,65,0.00,,,0.00,WUHU216HW,2013-02-20 15:32:00,
2013-02-20 10:37:00,20.2,10.2,30.06,NW,304,6.1,11.0,65,0.00,,,0.00,WUHU216HW,2013-02-20 15:37:00,
2013-02-20 10:42:00,20.2,10.2,30.07,NNW,342,5.2,6.0,65,0.00,,,0.00,WUHU216HW,2013-02-20 15:42:00,
2013-02-20 10:47:00,20.2,10.2,30.07,North,4,4.7,8.1,65,0.00,,,0.00,WUHU216HW,2013-02-20 15:47:00,
2013-02-20 10:53:00,20.3,10.4,30.07,North,357,4.4,5.6,65,0.00,,,0.00,WUHU216HW,2013-02-20 15:53:00,
2013-02-20 10:58:00,20.2,9.8,30.07,WNW,301,4.0,4.9,64,0.00,,,0.00,WUHU216HW,2013-02-20 15:58:00,
2013-02-20 11:03:00,20.5,10.5,30.07,NW,317,1.5,3.8,65,0.00,,,0.00,WUHU216HW,2013-02-20 16:03:00,
2013-02-20 11:08:00,20.5,10.5,30.08,NW,314,4.4,6.9,65,0.00,,,0.00,WUHU216HW,2013-02-20 16:08:00,
2013-02-20 11:13:00,20.5,10.5,30.07,NNW,338,4.0,5.6,65,0.00,,,0.00,WUHU216HW,2013-02-20 16:13:00,
2013-02-20 11:18:00,20.7,10.7,30.08,West,269,2.9,5.4,65,0.00,,,0.00,WUHU216HW,2013-02-20 16:18:00,
2013-02-20 11:23:00,20.5,10.5,30.08,NW,326,3.9,4.5,65,0.00,,,0.00,WUHU216HW,2013-02-20 16:23:00,
2013-02-20 11:28:00,20.5,10.5,30.08,NNW,338,2.8,3.1,65,0.00,,,0.00,WUHU216HW,2013-02-20 16:28:00,
2013-02-20 11:33:00,20.3,10.4,30.08,NNW,327,6.0,7.6,65,0.00,,,0.00,WUHU216HW,2013-02-20 16:33:00,
2013-02-20 11:38:00,20.3,10.4,30.08,NW,323,6.2,7.4,65,0.00,,,0.00,WUHU216HW,2013-02-20 16:38:00,
2013-02-20 11:43:00,20.2,10.2,30.08,NW,307,5.6,7.4,65,0.00,,,0.00,WUHU216HW,2013-02-20 16:43:00,
2013-02-20 11:48:00,20.3,10.4,30.08,WNW,300,5.3,8.5,65,0.00,,,0.00,WUHU216HW,2013-02-20 16:48:00,
2013-02-20 11:53:00,20.5,10.5,30.09,NNW,329,4.3,5.6,65,0.00,,,0.00,WUHU216HW,2013-02-20 16:53:00,
2013-02-20 11:58:00,20.5,10.5,30.09,NW,316,3.4,3.6,65,0.00,,,0.00,WUHU216HW,2013-02-20 16:58:00,
2013-02-20 12:03:00,20.9,10.9,30.09,WNW,294,3.0,4.0,65,0.00,,,0.00,WUHU216HW,2013-02-20 17:03:00,
2013-02-20 12:08:00,20.9,10.5,30.09,NW,310,3.5,5.4,64,0.00,,,0.00,WUHU216HW,2013-02-20 17:08:00,
2013-02-20 12:13:00,21.1,11.1,30.09,WNW,299,7.0,8.5,65,0.00,,,0.00,WUHU216HW,2013-02-20 17:13:00,
2013-02-20 12:18:00,20.9,10.2,30.09,NNW,333,5.0,6.5,63,0.00,,,0.00,WUHU216HW,2013-02-20 17:18:00,
2013-02-20 12:23:00,20.9,10.2,30.09,NNW,327,4.2,5.4,63,0.00,,,0.00,WUHU216HW,2013-02-20 17:23:00,
2013-02-20 12:28:00,21.1,10.4,30.09,NW,313,4.2,5.1,63,0.00,,,0.00,WUHU216HW,2013-02-20 17:28:00,
2013-02-20 12:33:00,21.2,10.5,30.09,NNW,334,3.5,4.5,63,0.00,,,0.00,WUHU216HW,2013-02-20 17:33:00,
2013-02-20 12:38:00,21.4,11.1,30.09,NW,308,3.3,5.1,64,0.00,,,0.00,WUHU216HW,2013-02-20 17:38:00,
2013-02-20 12:43:00,21.2,10.5,30.09,NNW,330,3.5,5.4,63,0.00,,,0.00,WUHU216HW,2013-02-20 17:43:00,
2013-02-20 12:48:00,21.2,10.3,30.09,WNW,299,4.3,7.6,62,0.00,,,0.00,WUHU216HW,2013-02-20 17:48:00,
2013-02-20 12:53:00,21.4,10.4,30.09,WNW,287,6.6,8.5,62,0.00,,,0.00,WUHU216HW,2013-02-20 17:53:00,
2013-02-20 12:58:00,21.4,10.4,30.10,NNW,335,3.6,5.8,62,0.00,,,0.00,WUHU216HW,2013-02-20 17:58:00,
2013-02-20 13:03:00,21.6,10.9,30.10,WNW,290,4.7,7.8,63,0.00,,,0.00,WUHU216HW,2013-02-20 18:03:00,
2013-02-20 13:08:00,21.4,10.4,30.10,WNW,296,3.3,3.4,62,0.00,,,0.00,WUHU216HW,2013-02-20 18:08:00,
2013-02-20 13:13:00,21.4,10.1,30.10,NNW,330,6.8,8.9,61,0.00,,,0.00,WUHU216HW,2013-02-20 18:13:00,
2013-02-20 13:18:00,21.6,10.5,30.10,NNW,333,4.1,4.7,62,0.00,,,0.00,WUHU216HW,2013-02-20 18:18:00,
2013-02-20 13:23:00,21.8,10.7,30.10,NNW,336,2.6,3.4,62,0.00,,,0.00,WUHU216HW,2013-02-20 18:23:00,
2013-02-20 13:28:00,22.1,11.1,30.10,NNW,338,4.9,7.8,62,0.00,,,0.00,WUHU216HW,2013-02-20 18:28:00,
2013-02-20 13:33:00,22.1,10.7,30.10,NW,320,4.5,6.3,61,0.00,,,0.00,WUHU216HW,2013-02-20 18:33:00,
2013-02-20 13:38:00,22.1,10.7,30.10,NNW,334,4.8,6.3,61,0.00,,,0.00,WUHU216HW,2013-02-20 18:38:00,
2013-02-20 13:43:00,22.5,11.3,30.10,WNW,286,5.0,6.7,62,0.00,,,0.00,WUHU216HW,2013-02-20 18:43:00,
2013-02-20 13:48:00,22.5,11.3,30.10,West,281,6.6,8.3,62,0.00,,,0.00,WUHU216HW,2013-02-20 18:48:00,
2013-02-20 13:54:00,22.3,11.3,30.10,NW,307,8.1,9.6,62,0.00,,,0.00,WUHU216HW,2013-02-20 18:54:00,
2013-02-20 13:59:00,22.7,11.9,30.10,West,275,6.9,7.8,63,0.00,,,0.00,WUHU216HW,2013-02-20 18:59:00,
2013-02-20 14:04:00,22.7,11.5,30.11,NW,310,4.9,6.3,62,0.00,,,0.00,WUHU216HW,2013-02-20 19:04:00,
2013-02-20 14:09:00,22.7,11.5,30.10,NW,307,4.7,6.9,62,0.00,,,0.00,WUHU216HW,2013-02-20 19:09:00,
2013-02-20 14:14:00,22.7,11.5,30.11,NW,320,2.3,3.4,62,0.00,,,0.00,WUHU216HW,2013-02-20 19:14:00,
2013-02-20 14:19:00,22.5,11.3,30.11,NW,321,2.8,4.5,62,0.00,,,0.00,WUHU216HW,2013-02-20 19:19:00,
2013-02-20 14:24:00,22.7,11.9,30.10,NNW,333,4.8,6.7,63,0.00,,,0.00,WUHU216HW,2013-02-20 19:24:00,
2013-02-20 14:29:00,22.7,11.2,30.10,NNW,329,4.0,6.3,61,0.00,,,0.00,WUHU216HW,2013-02-20 19:29:00,
2013-02-20 14:34:00,22.9,12.1,30.11,WNW,284,5.6,9.4,63,0.00,,,0.00,WUHU216HW,2013-02-20 19:34:00,
2013-02-20 14:39:00,22.9,12.1,30.10,West,277,3.3,6.5,63,0.00,,,0.00,WUHU216HW,2013-02-20 19:39:00,
2013-02-20 14:44:00,22.9,12.4,30.11,West,264,3.3,4.7,64,0.00,,,0.00,WUHU216HW,2013-02-20 19:44:00,
2013-02-20 14:49:00,22.9,12.4,30.11,WNW,286,3.8,4.7,64,0.00,,,0.00,WUHU216HW,2013-02-20 19:49:00,
2013-02-20 14:54:00,23.0,12.6,30.11,West,268,3.4,3.8,64,0.00,,,0.00,WUHU216HW,2013-02-20 19:54:00,
2013-02-20 14:59:00,23.0,12.6,30.11,WNW,298,3.5,4.0,64,0.00,,,0.00,WUHU216HW,2013-02-20 19:59:00,
2013-02-20 15:04:00,23.0,12.6,30.10,WNW,297,5.0,6.7,64,0.00,,,0.00,WUHU216HW,2013-02-20 20:04:00,
2013-02-20 15:09:00,23.0,12.6,30.10,NNW,330,2.3,2.7,64,0.00,,,0.00,WUHU216HW,2013-02-20 20:09:00,
2013-02-20 15:14:00,23.0,12.2,30.10,WNW,289,6.1,9.6,63,0.00,,,0.00,WUHU216HW,2013-02-20 20:14:00,
2013-02-20 15:19:00,23.0,12.2,30.11,WNW,296,2.8,4.0,63,0.00,,,0.00,WUHU216HW,2013-02-20 20:19:00,
2013-02-20 15:24:00,23.4,12.6,30.11,NW,310,5.1,7.4,63,0.00,,,0.00,WUHU216HW,2013-02-20 20:24:00,
2013-02-20 15:29:00,23.2,12.4,30.11,NW,315,1.1,2.0,63,0.00,,,0.00,WUHU216HW,2013-02-20 20:29:00,
2013-02-20 15:34:00,23.2,12.4,30.12,WNW,295,4.4,6.0,63,0.00,,,0.00,WUHU216HW,2013-02-20 20:34:00,
2013-02-20 15:39:00,23.2,12.4,30.12,West,269,4.7,5.1,63,0.00,,,0.00,WUHU216HW,2013-02-20 20:39:00,
2013-02-20 15:44:00,23.4,12.6,30.12,WNW,290,4.2,5.6,63,0.00,,,0.00,WUHU216HW,2013-02-20 20:44:00,
2013-02-20 15:49:00,23.2,12.8,30.13,WNW,282,6.7,7.6,64,0.00,,,0.00,WUHU216HW,2013-02-20 20:49:00,
2013-02-20 15:54:00,23.0,12.6,30.13,West,271,4.9,5.8,64,0.00,,,0.00,WUHU216HW,2013-02-20 20:54:00,
2013-02-20 15:59:00,23.0,12.6,30.13,WNW,302,4.2,5.6,64,0.00,,,0.00,WUHU216HW,2013-02-20 20:59:00,
2013-02-20 16:04:00,23.0,12.6,30.13,NNW,345,3.3,4.0,64,0.00,,,0.00,WUHU216HW,2013-02-20 21:04:00,
2013-02-20 16:09:00,22.9,12.4,30.14,WNW,292,4.1,6.0,64,0.00,,,0.00,WUHU216HW,2013-02-20 21:09:00,
2013-02-20 16:14:00,22.7,12.6,30.14,WSW,251,3.2,4.0,65,0.00,,,0.00,WUHU216HW,2013-02-20 21:14:00,
2013-02-20 16:19:00,22.7,13.0,30.15,WSW,254,3.5,4.5,66,0.00,,,0.00,WUHU216HW,2013-02-20 21:19:00,
2013-02-20 16:24:00,22.7,13.0,30.15,West,268,3.6,4.7,66,0.00,,,0.00,WUHU216HW,2013-02-20 21:24:00,
2013-02-20 16:29:00,22.5,12.8,30.15,NW,324,1.1,2.0,66,0.00,,,0.00,WUHU216HW,2013-02-20 21:29:00,
2013-02-20 16:34:00,22.7,13.0,30.15,WSW,248,4.4,5.4,66,0.00,,,0.00,WUHU216HW,2013-02-20 21:34:00,
2013-02-20 16:39:00,22.7,13.0,30.16,NW,313,6.3,10.3,66,0.00,,,0.00,WUHU216HW,2013-02-20 21:39:00,
2013-02-20 16:44:00,22.5,13.1,30.16,WSW,257,6.7,7.6,67,0.00,,,0.00,WUHU216HW,2013-02-20 21:44:00,
2013-02-20 16:49:00,22.3,13.0,30.16,WSW,250,5.3,8.1,67,0.00,,,0.00,WUHU216HW,2013-02-20 21:49:00,
2013-02-20 16:54:00,22.1,13.1,30.16,WNW,299,4.7,5.8,68,0.00,,,0.00,WUHU216HW,2013-02-20 21:54:00,
2013-02-20 16:59:00,22.0,13.0,30.16,WNW,282,6.1,8.9,68,0.00,,,0.00,WUHU216HW,2013-02-20 21:59:00,
2013-02-20 17:05:00,22.0,13.0,30.16,West,262,4.4,5.1,68,0.00,,,0.00,WUHU216HW,2013-02-20 22:05:00,
2013-02-20 17:10:00,22.0,13.0,30.16,WNW,294,5.8,6.5,68,0.00,,,0.00,WUHU216HW,2013-02-20 22:10:00,
2013-02-20 17:15:00,22.0,13.0,30.16,NNW,334,4.6,5.8,68,0.00,,,0.00,WUHU216HW,2013-02-20 22:15:00,
2013-02-20 17:20:00,22.1,13.1,30.17,NW,305,4.2,6.5,68,0.00,,,0.00,WUHU216HW,2013-02-20 22:20:00,
2013-02-20 17:25:00,22.0,13.0,30.17,West,270,5.7,8.1,68,0.00,,,0.00,WUHU216HW,2013-02-20 22:25:00,
2013-02-20 17:30:00,22.0,13.0,30.17,WNW,293,6.6,6.9,68,0.00,,,0.00,WUHU216HW,2013-02-20 22:30:00,
2013-02-20 17:35:00,22.0,13.3,30.17,West,275,4.8,6.5,69,0.00,,,0.00,WUHU216HW,2013-02-20 22:35:00,
2013-02-20 17:40:00,22.0,13.0,30.17,West,274,3.4,9.2,68,0.00,,,0.00,WUHU216HW,2013-02-20 22:40:00,
2013-02-20 17:45:00,22.0,13.0,30.17,WNW,283,3.1,4.0,68,0.00,,,0.00,WUHU216HW,2013-02-20 22:45:00,
2013-02-20 17:50:00,22.0,13.3,30.17,WNW,294,3.8,5.1,69,0.00,,,0.00,WUHU216HW,2013-02-20 22:50:00,
2013-02-20 17:55:00,22.0,13.3,30.17,SW,229,2.6,4.5,69,0.00,,,0.00,WUHU216HW,2013-02-20 22:55:00,
2013-02-20 18:00:00,22.0,13.3,30.17,SW,223,2.2,3.6,69,0.00,,,0.00,WUHU216HW,2013-02-20 23:00:00,
2013-02-20 18:05:00,22.0,13.3,30.17,NW,324,2.5,3.8,69,0.00,,,0.00,WUHU216HW,2013-02-20 23:05:00,
2013-02-20 18:10:00,22.0,13.3,30.17,NW,321,3.1,3.4,69,0.00,,,0.00,WUHU216HW,2013-02-20 23:10:00,
2013-02-20 18:15:00,22.0,13.7,30.17,NW,304,6.9,7.6,70,0.00,,,0.00,WUHU216HW,2013-02-20 23:15:00,
2013-02-20 18:20:00,21.8,13.5,30.16,WNW,294,3.8,8.1,70,0.00,,,0.00,WUHU216HW,2013-02-20 23:20:00,
2013-02-20 18:25:00,22.0,14.0,30.16,North,353,4.0,4.3,71,0.00,,,0.00,WUHU216HW,2013-02-20 23:25:00,
2013-02-20 18:31:00,21.8,13.8,30.16,NNW,346,3.4,4.9,71,0.00,,,0.00,WUHU216HW,2013-02-20 23:31:00,
2013-02-20 18:36:00,22.0,14.0,30.16,NW,321,2.9,4.0,71,0.00,,,0.00,WUHU216HW,2013-02-20 23:36:00,
2013-02-20 18:41:00,22.0,14.0,30.16,NNW,338,2.0,2.7,71,0.00,,,0.00,WUHU216HW,2013-02-20 23:41:00,
2013-02-20 18:46:00,22.0,14.0,30.16,NNW,328,0.7,1.1,71,0.00,,,0.00,WUHU216HW,2013-02-20 23:46:00,
2013-02-20 18:51:00,22.0,14.3,30.16,WNW,282,3.7,5.1,72,0.00,,,0.00,WUHU216HW,2013-02-20 23:51:00,
2013-02-20 18:56:00,22.0,14.3,30.17,NNW,328,2.6,3.4,72,0.00,,,0.00,WUHU216HW,2013-02-20 23:56:00,
2013-02-20 19:01:00,22.0,14.3,30.17,NNW,333,2.5,4.3,72,0.00,,,0.00,WUHU216HW,2013-02-21 00:01:00,
2013-02-20 19:06:00,22.0,14.3,30.17,NW,322,1.7,2.0,72,0.00,,,0.00,WUHU216HW,2013-02-21 00:06:00,
2013-02-20 19:11:00,22.0,14.3,30.17,WNW,289,5.6,6.7,72,0.00,,,0.00,WUHU216HW,2013-02-21 00:11:00,
2013-02-20 19:16:00,22.0,14.6,30.17,NNW,335,2.9,3.4,73,0.00,,,0.00,WUHU216HW,2013-02-21 00:16:00,
2013-02-20 19:21:00,22.0,14.3,30.17,NNW,330,3.6,5.6,72,0.00,,,0.00,WUHU216HW,2013-02-21 00:21:00,
2013-02-20 19:26:00,22.0,14.6,30.17,NW,323,2.5,3.4,73,0.00,,,0.00,WUHU216HW,2013-02-21 00:26:00,
2013-02-20 19:31:00,22.0,14.6,30.17,NW,321,3.7,4.3,73,0.00,,,0.00,WUHU216HW,2013-02-21 00:31:00,
2013-02-20 19:36:00,22.0,14.6,30.17,WNW,287,7.0,7.8,73,0.00,,,0.00,WUHU216HW,2013-02-21 00:36:00,
2013-02-20 19:41:00,22.0,14.6,30.17,NW,308,2.5,3.6,73,0.00,,,0.00,WUHU216HW,2013-02-21 00:41:00,
2013-02-20 19:46:00,22.0,15.0,30.17,North,0,2.1,2.5,74,0.00,,,0.00,WUHU216HW,2013-02-21 00:46:00,
2013-02-20 19:51:00,22.0,15.0,30.17,NW,306,3.0,4.3,74,0.00,,,0.00,WUHU216HW,2013-02-21 00:51:00,
2013-02-20 19:56:00,22.0,15.0,30.17,NW,321,2.5,3.4,74,0.00,,,0.00,WUHU216HW,2013-02-21 00:56:00,
2013-02-20 20:01:00,22.0,15.2,30.17,NNW,338,2.3,2.9,75,0.00,,,0.00,WUHU216HW,2013-02-21 01:01:00,
2013-02-20 20:06:00,22.0,15.2,30.17,North,355,2.3,3.4,75,0.00,,,0.00,WUHU216HW,2013-02-21 01:06:00,
2013-02-20 20:11:00,22.0,15.2,30.17,NW,315,3.3,4.7,75,0.00,,,0.00,WUHU216HW,2013-02-21 01:11:00,
2013-02-20 20:16:00,22.0,15.2,30.17,NW,318,3.7,4.3,75,0.00,,,0.00,WUHU216HW,2013-02-21 01:16:00,
2013-02-20 20:21:00,22.0,15.5,30.17,NNW,342,2.9,4.7,76,0.00,,,0.00,WUHU216HW,2013-02-21 01:21:00,
2013-02-20 20:26:00,21.8,15.3,30.18,NNW,342,2.3,3.4,76,0.00,,,0.00,WUHU216HW,2013-02-21 01:26:00,
2013-02-20 20:31:00,22.0,15.9,30.18,NNW,347,3.3,3.4,77,0.00,,,0.00,WUHU216HW,2013-02-21 01:31:00,
2013-02-20 20:36:00,21.8,15.7,30.18,NNW,342,3.0,5.4,77,0.00,,,0.00,WUHU216HW,2013-02-21 01:36:00,
2013-02-20 20:41:00,21.8,15.3,30.18,NNW,340,4.8,5.4,76,0.00,,,0.00,WUHU216HW,2013-02-21 01:41:00,
2013-02-20 20:46:00,21.8,15.3,30.18,NNW,332,1.9,2.9,76,0.00,,,0.00,WUHU216HW,2013-02-21 01:46:00,
2013-02-20 20:51:00,21.8,15.0,30.18,NNW,346,3.4,3.8,75,0.00,,,0.00,WUHU216HW,2013-02-21 01:51:00,
2013-02-20 20:56:00,21.8,15.0,30.18,North,350,4.7,6.3,75,0.00,,,0.00,WUHU216HW,2013-02-21 01:56:00,
2013-02-20 21:01:00,22.0,15.2,30.18,North,3,4.4,7.6,75,0.00,,,0.00,WUHU216HW,2013-02-21 02:01:00,
2013-02-20 21:06:00,21.8,14.8,30.18,NNW,338,2.7,4.3,74,0.00,,,0.00,WUHU216HW,2013-02-21 02:06:00,
2013-02-20 21:11:00,21.8,15.0,30.18,NNW,328,1.3,1.8,75,0.00,,,0.00,WUHU216HW,2013-02-21 02:11:00,
2013-02-20 21:16:00,21.8,15.0,30.18,NNW,333,3.5,5.8,75,0.00,,,0.00,WUHU216HW,2013-02-21 02:16:00,
2013-02-20 21:22:00,21.8,15.0,30.18,NNW,337,3.5,5.4,75,0.00,,,0.00,WUHU216HW,2013-02-21 02:22:00,
2013-02-20 21:27:00,21.8,15.0,30.18,NNW,346,3.5,4.5,75,0.00,,,0.00,WUHU216HW,2013-02-21 02:27:00,
2013-02-20 21:32:00,21.8,15.0,30.18,NNW,341,5.6,9.8,75,0.00,,,0.00,WUHU216HW,2013-02-21 02:32:00,
2013-02-20 21:37:00,21.6,14.6,30.18,NNW,342,3.0,3.4,74,0.00,,,0.00,WUHU216HW,2013-02-21 02:37:00,
2013-02-20 21:42:00,21.6,14.6,30.19,NW,322,3.9,4.0,74,0.00,,,0.00,WUHU216HW,2013-02-21 02:42:00,
2013-02-20 21:47:00,21.6,14.6,30.18,NNW,345,5.1,6.9,74,0.00,,,0.00,WUHU216HW,2013-02-21 02:47:00,
2013-02-20 21:52:00,21.6,14.6,30.18,North,349,4.3,6.0,74,0.00,,,0.00,WUHU216HW,2013-02-21 02:52:00,
2013-02-20 21:57:00,21.4,14.4,30.18,North,349,1.1,1.6,74,0.00,,,0.00,WUHU216HW,2013-02-21 02:57:00,
2013-02-20 22:02:00,21.4,14.4,30.18,NNW,340,2.5,3.4,74,0.00,,,0.00,WUHU216HW,2013-02-21 03:02:00,
2013-02-20 22:07:00,21.4,14.4,30.19,NNW,338,2.6,3.4,74,0.00,,,0.00,WUHU216HW,2013-02-21 03:07:00,
2013-02-20 22:12:00,21.4,14.4,30.19,NNW,341,3.7,4.3,74,0.00,,,0.00,WUHU216HW,2013-02-21 03:12:00,
2013-02-20 22:17:00,21.4,14.4,30.19,North,0,2.9,4.7,74,0.00,,,0.00,WUHU216HW,2013-02-21 03:17:00,
2013-02-20 22:22:00,21.4,14.4,30.19,NNW,347,3.3,4.7,74,0.00,,,0.00,WUHU216HW,2013-02-21 03:22:00,
2013-02-20 22:27:00,21.4,14.7,30.19,North,350,3.3,6.7,75,0.00,,,0.00,WUHU216HW,2013-02-21 03:27:00,
2013-02-20 22:32:00,21.2,14.5,30.19,NNE,14,3.8,4.9,75,0.00,,,0.00,WUHU216HW,2013-02-21 03:32:00,
2013-02-20 22:37:00,21.4,14.4,30.19,North,357,2.9,4.0,74,0.00,,,0.00,WUHU216HW,2013-02-21 03:37:00,
2013-02-20 22:42:00,21.4,14.4,30.19,North,352,7.9,9.6,74,0.00,,,0.00,WUHU216HW,2013-02-21 03:42:00,
2013-02-20 22:47:00,21.4,14.4,30.19,North,349,4.8,5.6,74,0.00,,,0.00,WUHU216HW,2013-02-21 03:47:00,
2013-02-20 22:52:00,21.4,14.4,30.20,North,349,3.6,5.1,74,0.00,,,0.00,WUHU216HW,2013-02-21 03:52:00,
2013-02-20 22:57:00,21.4,14.7,30.20,North,3,3.8,4.0,75,0.00,,,0.00,WUHU216HW,2013-02-21 03:57:00,
2013-02-20 23:02:00,21.2,14.5,30.19,NNW,348,2.9,4.5,75,0.00,,,0.00,WUHU216HW,2013-02-21 04:02:00,
2013-02-20 23:07:00,21.2,14.5,30.19,North,1,3.3,5.4,75,0.00,,,0.00,WUHU216HW,2013-02-21 04:07:00,
2013-02-20 23:12:00,21.2,14.2,30.19,North,354,3.6,4.9,74,0.00,,,0.00,WUHU216HW,2013-02-21 04:12:00,
2013-02-20 23:17:00,21.2,14.2,30.20,NNW,335,3.6,6.9,74,0.00,,,0.00,WUHU216HW,2013-02-21 04:17:00,
2013-02-20 23:22:00,21.1,14.3,30.20,North,0,2.4,3.6,75,0.00,,,0.00,WUHU216HW,2013-02-21 04:22:00,
2013-02-20 23:27:00,21.2,14.5,30.20,North,355,4.2,6.3,75,0.00,,,0.00,WUHU216HW,2013-02-21 04:27:00,
2013-02-20 23:32:00,21.1,14.6,30.20,NNW,340,2.9,3.6,76,0.00,,,0.00,WUHU216HW,2013-02-21 04:32:00,
2013-02-20 23:37:00,21.1,14.6,30.19,North,355,3.3,3.8,76,0.00,,,0.00,WUHU216HW,2013-02-21 04:37:00,
2013-02-20 23:43:00,21.1,14.3,30.19,NNW,332,1.7,1.8,75,0.00,,,0.00,WUHU216HW,2013-02-21 04:43:00,
2013-02-20 23:48:00,21.1,14.3,30.19,North,358,4.0,5.8,75,0.00,,,0.00,WUHU216HW,2013-02-21 04:48:00,
2013-02-20 23:53:00,21.1,14.6,30.19,North,355,2.4,2.9,76,0.00,,,0.00,WUHU216HW,2013-02-21 04:53:00,
2013-02-20 23:58:00,21.1,14.6,30.20,NNW,343,1.1,1.8,76,0.00,,,0.00,WUHU216HW,2013-02-21 04:58:00,